星链-35912(STARLINK-35912)

导读 | 豆包AI

STARLINK-35912是美国SpaceX星链项目的卫星,于2025年12月4日发射升空。星链计划旨在构建全球卫星互联网星座,该卫星将为全球偏远地区等提供高速低延迟的宽带网络服务,进一步扩展星链星座的全球覆盖能力,推动卫星互联网的普及应用。

基本信息
目录编号:
66882
目录名称:
STARLINK-35912
国际标识:
2025-283E
轨道中心:
EARTH
卫星名称:
星链-35912
卫星全名:
星链-35912(STARLINK-35912)
卫星状态:
在轨 (已飞行100 天)
发射日期:
2025-12-04 UTC
国别 :
美国 (US)
星等 :
--
轨道信息
数据来源 国际轨道数据 AOE轨道数据
星历时间 2026-03-14T07:01:19+0800
10小时前
查看轨道信息
2026-03-12T17:00:00+0800
2天前
查看轨道信息
半长轴 6853.288km 6853.387km
偏心率 0.0001282 0.000105
轨道倾角 53.160° 53.158°
近地点辐角 117.913° 65.085°
升交点赤经 4.638° 11.998°
平近点角 242.200° 203.019°
近地点 474.272km 474.53km
远地点 476.03km 475.97km
周期 94.104分钟 94.106分钟
每日圈数 15.302216 15.301884
详细信息
固有亮度:
5
最大亮度:
2.5
卫星平台:
Starlink V1.0
覆盖范围:
全球
运营商:
太空探索技术公司
运营商所在国:
美国
制造商(研发单位):
太空探索技术公司
制造商所在国:
美国
使用方式:
暂无
卫星简介
Starlink 计划是 SpaceX 推出的全球卫星互联网项目,通过发射低轨道卫星,为全球尤其是偏远地区提供高速、低延迟的互联网服务。自 2019 年起,Starlink 已部署数千颗卫星,旨在缩小全球数字鸿沟,推动互联网普及。该项目还为军事、航空等行业提供通信支持,带来广泛经济效益。
2D轨道图
3D轨道图
轨道高度分析图
轨道倾角分析图
轨道综合分析图
查看轨道综合分析图